LA6LOA Weather Reports


time (UTC)temp
C
wind
direction
speed
KPH
gust
KPH
rain 1hr
cm
rain 24hr
cm
rain mn
cm
humidity
%
barometer
mb
20260508122549 5 338 19.3 19.3 0.00 0.00 0.00 100 1023.0
20260508122049 5 352 12.9 14.5 0.00 0.00 0.00 100 1023.0
20260508121549 5 331 12.9 16.1 0.00 0.00 0.00 100 1023.0
20260508121049 5 345 9.7 14.5 0.00 0.00 0.00 100 1023.0
20260508120549 5 348 11.3 16.1 0.00 0.00 0.00 100 1023.0
20260508120049 5 357 14.5 16.1 0.00 0.00 0.00 100 1022.9
20260508115549 5 336 12.9 16.1 0.00 0.00 0.00 100 1022.9
20260508115049 5 348 14.5 16.1 0.00 0.00 0.00 100 1022.8
20260508114549 5 7 9.7 14.5 0.00 0.00 0.00 100 1022.8
20260508114049 4 358 11.3 16.1 0.00 0.00 0.00 100 1022.9
20260508113549 5 350 14.5 19.3 0.00 0.00 0.00 100 1022.9
20260508113049 5 340 17.7 19.3 0.00 0.00 0.00 100 1022.9
20260508112549 5 334 17.7 19.3 0.00 0.00 0.00 100 1022.8
20260508112049 5 331 14.5 17.7 0.00 0.00 0.00 100 1022.8
20260508111549 5 326 17.7 19.3 0.00 0.00 0.00 100 1022.9
20260508111049 5 319 17.7 22.5 0.00 0.00 0.00 100 1022.8
20260508110550 6 309 17.7 24.1 0.00 0.00 0.00 100 1022.8
20260508110049 7 336 11.3 16.1 0.00 0.00 0.00 100 1022.7
20260508105549 8 1 6.4 9.7 0.00 0.00 0.00 100 1022.7
20260508105049 8 135 0.0 14.5 0.00 0.00 0.00 100 1022.6
20260508104549 8 180 8.0 16.1 0.00 0.00 0.00 100 1022.5
20260508104049 8 147 11.3 14.5 0.00 0.00 0.00 100 1022.5
20260508103549 7 137 9.7 17.7 0.00 0.00 0.00 100 1022.4
20260508103049 7 130 1.6 11.3 0.00 0.00 0.00 100 1022.3
20260508102550 7 222 1.6 14.5 0.00 0.00 0.00 100 1022.3
20260508102049 7 217 9.7 11.3 0.00 0.00 0.00 100 1022.3
20260508101550 7 181 1.6 16.1 0.00 0.00 0.00 100 1022.3
20260508101050 7 182 0.0 12.9 0.00 0.00 0.00 100 1022.3
20260508100550 7 217 0.0 8.0 0.00 0.00 0.00 100 1022.3
20260508100050 7 265 0.0 11.3 0.00 0.00 0.00 100 1022.2
20260508095550 7 271 8.0 14.5 0.00 0.00 0.00 100 1022.2
20260508095050 7 292 8.0 12.9 0.00 0.00 0.00 100 1022.2
20260508094550 7 291 12.9 14.5 0.00 0.00 0.00 100 1022.1
20260508094050 7 277 1.6 11.3 0.00 0.00 0.00 100 1022.1
20260508093550 7 285 0.0 11.3 0.00 0.00 0.00 100 1022.1
20260508093050 7 229 0.0 14.5 0.00 0.00 0.00 100 1022.1
20260508092550 7 267 0.0 11.3 0.00 0.00 0.00 100 1022.0
20260508092050 7 274 1.6 8.0 0.00 0.00 0.00 100 1022.0
20260508091550 7 222 6.4 9.7 0.00 0.00 0.00 100 1022.0
20260508091050 7 209 0.0 0.0 0.00 0.00 0.00 100 1021.9
20260508090550 7 209 0.0 11.3 0.00 0.00 0.00 100 1021.9
20260508090050 6 274 8.0 11.3 0.00 0.00 0.00 100 1021.9
20260508085550 6 215 3.2 6.4 0.00 0.00 0.00 100 1021.8
20260508085050 6 185 0.0 11.3 0.00 0.00 0.00 100 1021.9
20260508084550 6 279 9.7 14.5 0.00 0.00 0.00 100 1021.9
20260508084050 6 267 6.4 19.3 0.00 0.00 0.00 100 1021.9
20260508083550 6 236 14.5 27.4 0.00 0.00 0.00 100 1021.9
20260508083050 5 253 17.7 30.6 0.00 0.00 0.00 100 1021.8
20260508082550 6 271 20.9 27.4 0.00 0.00 0.00 100 1021.8
20260508082050 6 268 22.5 24.1 0.00 0.00 0.00 100 1021.8
20260508081550 7 288 0.0 6.4 0.00 0.00 0.00 100 1021.8
20260508081050 6 275 0.0 9.7 0.00 0.00 0.00 100 1021.7
20260508080550 6 291 4.8 11.3 0.00 0.00 0.00 100 1021.7
20260508080050 7 241 0.0 0.0 0.00 0.00 0.00 100 1021.7
20260508075550 6 241 0.0 6.4 0.00 0.00 0.00 100 1021.5
20260508075050 6 298 4.8 4.8 0.00 0.00 0.00 100 1021.6
20260508074550 6 285 0.0 8.0 0.00 0.00 0.00 100 1021.6
20260508074050 7 144 0.0 9.7 0.00 0.00 0.00 100 1021.6
20260508073550 7 199 0.0 9.7 0.00 0.00 0.00 100 1021.5
20260508073050 6 258 8.0 11.3 0.00 0.00 0.00 100 1021.5
20260508072550 6 261 0.0 12.9 0.00 0.00 0.00 100 1021.4
20260508072050 6 286 9.7 12.9 0.00 0.00 0.00 100 1021.3
20260508071550 6 302 11.3 12.9 0.00 0.00 0.00 100 1021.3
20260508071050 6 305 6.4 12.9 0.00 0.00 0.00 100 1021.2
20260508070550 6 270 0.0 14.5 0.00 0.00 0.00 100 1021.2
20260508070050 6 285 6.4 16.1 0.00 0.00 0.00 100 1021.1
20260508065550 6 284 9.7 14.5 0.00 0.00 0.00 100 1021.0
20260508065050 6 215 0.0 0.0 0.00 0.00 0.00 100 1020.9
20260508064550 6 215 0.0 0.0 0.00 0.00 0.00 100 1020.8
20260508064050 6 215 0.0 0.0 0.00 0.00 0.00 100 1020.7
20260508063550 6 215 0.0 12.9 0.00 0.00 0.00 100 1020.7
20260508063050 6 209 3.2 12.9 0.00 0.00 0.00 100 1020.6
20260508062550 6 243 8.0 9.7 0.00 0.00 0.00 100 1020.4
20260508062050 6 222 1.6 9.7 0.00 0.00 0.00 100 1020.4
20260508061550 6 184 0.0 6.4 0.00 0.00 0.00 100 1020.2
20260508061050 7 202 0.0 4.8 0.00 0.00 0.00 100 1020.1
20260508060550 6 237 0.0 0.0 0.00 0.00 0.00 100 1020.0
20260508060050 6 237 0.0 8.0 0.00 0.00 0.00 100 1019.9
20260508055550 6 299 6.4 8.0 0.00 0.00 0.00 100 1019.9
20260508055050 6 296 8.0 11.3 0.00 0.00 0.00 100 1019.9
20260508054550 6 279 9.7 11.3 0.00 0.00 0.00 100 1019.7
20260508054051 6 217 0.0 4.8 0.00 0.00 0.00 100 1019.7
20260508053551 6 80 0.0 0.0 0.00 0.00 0.00 100 1019.6
20260508053051 6 80 0.0 0.0 0.00 0.00 0.00 100 1019.6
20260508052551 6 80 0.0 0.0 0.00 0.00 0.00 100 1019.6
20260508052051 6 80 0.0 4.8 0.00 0.00 0.00 100 1019.5
20260508051551 5 112 1.6 1.6 0.00 0.00 0.00 100 1019.5
20260508051051 5 160 0.0 4.8 0.00 0.00 0.00 100 1019.5
20260508050551 5 185 0.0 12.9 0.00 0.00 0.00 100 1019.4
20260508050051 5 178 9.7 12.9 0.00 0.00 0.00 100 1019.4
20260508045551 6 122 0.0 0.0 0.00 0.00 0.00 100 1019.4
20260508045051 5 122 0.0 8.0 0.00 0.00 0.00 100 1019.4
20260508044551 5 139 0.0 0.0 0.00 0.00 0.00 100 1019.4
20260508044051 5 139 0.0 0.0 0.00 0.00 0.00 100 1019.3
20260508043551 5 139 0.0 0.0 0.00 0.00 0.00 100 1019.3
20260508043051 5 139 0.0 3.2 0.00 0.00 0.00 100 1019.2
20260508042551 5 139 3.2 4.8 0.00 0.00 0.00 100 1019.2
20260508042051 5 192 0.0 9.7 0.00 0.00 0.00 100 1019.2
20260508041551 5 135 0.0 8.0 0.00 0.00 0.00 100 1019.2
20260508041051 5 185 0.0 8.0 0.00 0.00 0.00 100 1019.1
20260508040551 5 177 1.6 11.3 0.00 0.00 0.00 100 1019.2
20260508040051 5 171 1.6 9.7 0.00 0.00 0.00 100 1019.1
20260508035551 5 220 0.0 0.0 0.00 0.00 0.00 100 1019.1
20260508035051 4 220 0.0 0.0 0.00 0.00 0.00 100 1019.1
20260508034551 4 220 0.0 9.7 0.00 0.00 0.00 100 1019.0
20260508034051 4 137 0.0 0.0 0.00 0.00 0.00 100 1019.0
20260508033551 5 137 0.0 0.0 0.00 0.00 0.00 100 1019.0
20260508033051 6 137 0.0 0.0 0.00 0.00 0.00 100 1018.9
20260508032551 7 137 0.0 0.0 0.00 0.00 0.00 100 1019.0
20260508032051 5 137 0.0 0.0 0.00 0.00 0.00 100 1018.9
20260508031551 4 137 0.0 0.0 0.00 0.00 0.00 100 1018.9
20260508031051 3 137 0.0 11.3 0.00 0.00 0.00 100 1018.8
20260508030551 4 126 0.0 9.7 0.00 0.00 0.00 100 1018.8
20260508030051 5 106 0.0 3.2 0.00 0.00 0.00 100 1018.8
20260508025551 4 106 3.2 9.7 0.00 0.00 0.00 100 1018.8
20260508025051 3 144 1.6 11.3 0.00 0.00 0.00 100 1018.8
20260508024551 3 198 0.0 0.0 0.00 0.00 0.00 100 1018.7
20260508024051 3 198 0.0 0.0 0.00 0.00 0.00 100 1018.7
20260508023551 3 198 0.0 0.0 0.00 0.00 0.00 100 1018.6
20260508023051 3 198 0.0 0.0 0.00 0.00 0.00 100 1018.6
20260508022551 3 198 0.0 0.0 0.00 0.00 0.00 100 1018.6
20260508022051 3 198 0.0 0.0 0.00 0.00 0.00 100 1018.5
20260508021551 3 198 0.0 0.0 0.00 0.00 0.00 100 1018.6
20260508021051 3 198 0.0 0.0 0.00 0.00 0.00 100 1018.5
20260508020551 3 198 0.0 0.0 0.00 0.00 0.00 100 1018.5
20260508020051 3 198 0.0 0.0 0.00 0.00 0.00 100 1018.5
20260508015551 3 198 0.0 8.0 0.00 0.00 0.00 100 1018.5
20260508015051 3 198 0.0 0.0 0.00 0.00 0.00 100 1018.5
20260508014551 3 198 0.0 6.4 0.00 0.00 0.00 100 1018.4
20260508014051 3 213 0.0 9.7 0.00 0.00 0.00 100 1018.4
20260508013551 3 170 0.0 11.3 0.00 0.00 0.00 100 1018.3
20260508013051 3 213 9.7 14.5 0.00 0.00 0.00 100 1018.2
20260508012551 3 203 0.0 0.0 0.00 0.00 0.00 100 1018.2
20260508012051 2 203 0.0 14.5 0.00 0.00 0.00 100 1018.2
20260508011551 3 243 8.0 19.3 0.00 0.00 0.00 100 1018.1
20260508011052 3 253 11.3 22.5 0.00 0.00 0.00 100 1018.1
20260508010552 3 222 17.7 20.9 0.00 0.00 0.00 100 1018.1
20260508010052 2 229 11.3 17.7 0.00 0.00 0.00 100 1018.0
20260508005552 2 222 11.3 14.5 0.00 0.00 0.00 100 1018.1
20260508005052 2 215 6.4 14.5 0.00 0.00 0.00 100 1018.0
20260508004552 2 199 0.0 8.0 0.00 0.00 0.00 100 1017.9
20260508004052 2 215 0.0 12.9 0.00 0.00 0.00 100 1017.9
20260508003552 2 199 0.0 11.3 0.00 0.00 0.00 100 1017.9
20260508003052 2 149 0.0 0.0 0.00 0.00 0.00 100 1017.8
20260508002552 2 149 0.0 0.0 0.00 0.00 0.00 100 1017.7
20260508002052 2 149 0.0 12.9 0.00 0.00 0.00 100 1017.7
20260508001552 2 206 0.0 12.9 0.00 0.00 0.00 100 1017.8
20260508001052 2 208 0.0 12.9 0.00 0.00 0.00 100 1017.7
20260508000552 2 206 9.7 11.3 0.00 0.00 0.00 100 1017.7
20260508000052 2 210 8.0 8.0 0.00 0.00 0.00 100 1017.6
20260507235552 2 206 0.0 16.1 0.00 0.00 0.00 100 1017.7
20260507235052 2 194 9.7 14.5 0.00 0.00 0.00 100 1017.6
20260507234552 2 208 0.0 6.4 0.00 0.00 0.00 100 1017.6
20260507234052 2 205 0.0 12.9 0.00 0.00 0.00 100 1017.6
20260507233552 2 184 1.6 12.9 0.00 0.00 0.00 100 1017.6
20260507233052 2 208 11.3 19.3 0.00 0.00 0.00 100 1017.5
20260507232552 2 229 6.4 17.7 0.00 0.00 0.00 100 1017.5
20260507232052 2 210 14.5 14.5 0.00 0.00 0.00 100 1017.4
20260507231552 2 212 0.0 1.6 0.00 0.00 0.00 100 1017.4
20260507231052 2 212 0.0 12.9 0.00 0.00 0.00 100 1017.3
20260507230552 1 195 0.0 9.7 0.00 0.00 0.00 100 1017.4
20260507230052 1 182 0.0 0.0 0.00 0.00 0.00 100 1017.3
20260507225552 1 182 0.0 4.8 0.00 0.00 0.00 100 1017.4
20260507225052 1 241 0.0 0.0 0.00 0.00 0.00 100 1017.4
20260507224552 1 241 0.0 0.0 0.00 0.00 0.00 100 1017.3
20260507224052 2 241 0.0 0.0 0.00 0.00 0.00 100 1017.3
20260507223552 2 241 0.0 4.8 0.00 0.00 0.00 100 1017.3
20260507223052 2 109 0.0 3.2 0.00 0.00 0.00 100 1017.3
20260507222552 2 109 0.0 0.0 0.00 0.00 0.00 100 1017.3
20260507222052 2 109 0.0 0.0 0.00 0.00 0.00 100 1017.3
20260507221552 2 109 0.0 4.8 0.00 0.00 0.00 100 1017.3
20260507221052 2 202 0.0 0.0 0.00 0.00 0.00 100 1017.3
20260507220552 2 202 0.0 6.4 0.00 0.00 0.00 100 1017.3
20260507220052 2 119 0.0 6.4 0.00 0.00 0.00 100 1017.3
20260507215552 2 178 0.0 6.4 0.00 0.00 0.00 100 1017.3
20260507215052 3 178 1.6 11.3 0.00 0.00 0.00 100 1017.3
20260507214552 3 135 6.4 9.7 0.00 0.00 0.00 100 1017.3
20260507214052 3 101 0.0 11.3 0.00 0.00 0.00 100 1017.3
20260507213552 3 139 8.0 8.0 0.00 0.00 0.00 100 1017.3
20260507213052 3 149 0.0 6.4 0.00 0.00 0.00 100 1017.3
20260507212552 3 106 0.0 0.0 0.00 0.00 0.00 100 1017.3
20260507212052 3 106 0.0 9.7 0.00 0.00 0.00 100 1017.3
20260507211552 3 94 0.0 11.3 0.00 0.00 0.00 100 1017.3
20260507211052 3 120 0.0 0.0 0.00 0.00 0.00 100 1017.3
20260507210552 3 120 0.0 8.0 0.00 0.00 0.00 100 1017.3
20260507210052 3 115 4.8 12.9 0.00 0.00 0.00 100 1017.3
20260507205552 3 175 0.0 9.7 0.00 0.00 0.00 100 1017.4
20260507205052 3 136 0.0 11.3 0.00 0.00 0.00 100 1017.4
20260507204552 3 123 9.7 12.9 0.00 0.00 0.00 100 1017.4
20260507204052 2 75 0.0 0.0 0.00 0.00 0.00 100 1017.4
20260507203552 3 75 0.0 9.7 0.00 0.00 0.00 100 1017.5
20260507203052 2 133 0.0 0.0 0.00 0.00 0.00 100 1017.6
20260507202552 3 133 0.0 0.0 0.00 0.00 0.00 100 1017.5
20260507202052 3 133 0.0 0.0 0.00 0.00 0.00 100 1017.5
20260507201553 3 133 0.0 12.9 0.00 0.00 0.00 100 1017.5
20260507201053 3 172 9.7 9.7 0.00 0.00 0.00 100 1017.4
20260507200553 3 170 0.0 11.3 0.00 0.00 0.00 100 1017.4
20260507200053 3 172 0.0 14.5 0.00 0.00 0.00 100 1017.4
20260507195553 3 146 1.6 11.3 0.00 0.00 0.00 100 1017.4
20260507195053 3 90 0.0 14.5 0.00 0.00 0.00 100 1017.3
20260507194553 3 165 1.6 16.1 0.00 0.00 0.00 100 1017.3
20260507194053 3 158 9.7 17.7 0.00 0.00 0.00 100 1017.3
20260507193553 3 130 11.3 20.9 0.00 0.00 0.00 100 1017.3
20260507193053 3 150 11.3 16.1 0.00 0.00 0.00 100 1017.3
20260507192553 3 153 0.0 14.5 0.00 0.00 0.00 100 1017.2
20260507192053 3 135 0.0 12.9 0.00 0.00 0.00 100 1017.2
20260507191553 3 113 8.0 16.1 0.00 0.00 0.00 100 1017.2
20260507191053 3 136 8.0 19.3 0.00 0.00 0.00 100 1017.1
20260507190553 4 136 8.0 17.7 0.00 0.00 0.00 100 1017.1
20260507190053 4 172 1.6 14.5 0.00 0.00 0.00 100 1017.1
20260507185553 4 122 0.0 12.9 0.00 0.00 0.00 100 1017.1
20260507185053 5 113 1.6 14.5 0.00 0.00 0.00 100 1017.0
20260507184553 5 123 12.9 19.3 0.00 0.00 0.00 100 1017.0
20260507184053 5 170 9.7 17.7 0.00 0.00 0.00 100 1016.9
20260507183553 5 180 6.4 11.3 0.00 0.00 0.00 100 1016.9
20260507183053 5 175 0.0 9.7 0.00 0.00 0.00 100 1016.9
20260507182553 5 108 0.0 0.0 0.00 0.00 0.00 100 1016.8
20260507182053 5 108 0.0 11.3 0.00 0.00 0.00 100 1016.8
20260507181553 5 129 9.7 11.3 0.00 0.00 0.00 100 1016.8
20260507181053 5 105 0.0 12.9 0.00 0.00 0.00 100 1016.8
20260507180553 5 132 8.0 12.9 0.00 0.00 0.00 100 1016.7
20260507180053 5 118 1.6 12.9 0.00 0.00 0.00 100 1016.7
20260507175553 4 97 0.0 9.7 0.00 0.00 0.00 100 1016.7
20260507175053 4 132 1.6 17.7 0.00 0.00 0.00 100 1016.6
20260507174553 5 149 9.7 17.7 0.00 0.00 0.00 100 1016.5
20260507174053 5 160 8.0 16.1 0.00 0.00 0.00 100 1016.4
20260507173553 5 116 6.4 14.5 0.00 0.00 0.00 100 1016.4
20260507173053 5 140 1.6 14.5 0.00 0.00 0.00 100 1016.3
20260507172553 5 180 12.9 14.5 0.00 0.00 0.00 100 1016.3
20260507172053 5 172 1.6 12.9 0.00 0.00 0.00 100 1016.3
20260507171553 5 109 4.8 12.9 0.00 0.00 0.00 100 1016.2
20260507171053 5 129 9.7 14.5 0.00 0.00 0.00 100 1016.2
20260507170554 5 167 8.0 17.7 0.00 0.00 0.00 100 1016.2
20260507170053 5 150 8.0 12.9 0.00 0.00 0.00 100 1016.1
20260507165553 5 84 0.0 9.7 0.00 0.00 0.00 100 1016.1
20260507165053 5 113 8.0 12.9 0.00 0.00 0.00 100 1016.0
20260507164553 6 154 0.0 8.0 0.00 0.00 0.00 100 1016.1
20260507164053 6 161 0.0 11.3 0.00 0.00 0.00 100 1016.1
20260507163553 6 137 6.4 12.9 0.00 0.00 0.00 100 1016.1
20260507163053 6 101 1.6 11.3 0.00 0.00 0.00 100 1016.0
20260507162553 6 153 8.0 8.0 0.00 0.00 0.00 100 1016.0
20260507162053 6 99 0.0 6.4 0.00 0.00 0.00 100 1015.9
20260507161553 6 164 0.0 9.7 0.00 0.00 0.00 100 1015.9
20260507161053 5 104 0.0 11.3 0.00 0.00 0.00 100 1015.9
20260507160553 5 146 1.6 9.7 0.00 0.00 0.00 100 1015.9
20260507160053 5 127 0.0 12.9 0.00 0.00 0.00 100 1015.8
20260507155553 5 91 0.0 0.0 0.00 0.00 0.00 100 1015.8
20260507155053 5 91 0.0 9.7 0.00 0.00 0.00 100 1015.8
20260507154553 5 90 0.0 9.7 0.00 0.00 0.00 100 1015.8
20260507154054 5 125 0.0 0.0 0.00 0.00 0.00 100 1015.7
20260507153554 5 125 0.0 11.3 0.00 0.00 0.00 100 1015.7
20260507153054 4 101 0.0 0.0 0.00 0.00 0.00 100 1015.6
20260507152554 4 101 0.0 0.0 0.00 0.00 0.00 100 1015.6
20260507152054 4 101 0.0 0.0 0.00 0.00 0.00 100 1015.6
20260507151554 4 101 0.0 4.8 0.00 0.00 0.00 100 1015.6
20260507151054 5 310 0.0 0.0 0.00 0.00 0.00 100 1015.6
20260507150554 4 310 0.0 0.0 0.00 0.00 0.00 100 1015.7
20260507150054 5 310 0.0 0.0 0.00 0.00 0.00 100 1015.7
20260507145554 4 310 0.0 0.0 0.00 0.00 0.00 100 1015.6
20260507145054 3 310 0.0 0.0 0.00 0.00 0.00 100 1015.6
20260507144554 4 310 0.0 0.0 0.00 0.00 0.00 100 1015.6
20260507144054 4 310 0.0 12.9 0.00 0.00 0.00 100 1015.5
20260507143554 4 319 6.4 12.9 0.00 0.00 0.00 100 1015.5
20260507143054 5 309 11.3 11.3 0.00 0.00 0.00 100 1015.4
20260507142554 5 307 1.6 14.5 0.00 0.00 0.00 100 1015.4
20260507142054 5 327 6.4 12.9 0.00 0.00 0.00 100 1015.4
20260507141554 5 319 9.7 14.5 0.00 0.00 0.00 100 1015.4
20260507141054 5 316 11.3 12.9 0.00 0.00 0.00 100 1015.4
20260507140554 6 317 9.7 14.5 0.00 0.00 0.00 100 1015.4
20260507140054 5 319 9.7 16.1 0.00 0.00 0.00 100 1015.3
20260507135554 5 312 14.5 19.3 0.00 0.00 0.00 100 1015.3
20260507135054 5 329 16.1 22.5 0.00 0.00 0.00 100 1015.2
20260507134554 6 323 14.5 20.9 0.00 0.00 0.00 100 1015.2
20260507134054 5 316 19.3 19.3 0.00 0.00 0.00 100 1015.1
20260507133554 5 313 9.7 17.7 0.00 0.00 0.00 100 1015.0
20260507133054 5 306 16.1 19.3 0.00 0.00 0.00 100 1015.0
20260507132554 5 313 11.3 19.3 0.00 0.00 0.00 100 1014.9
20260507132054 5 299 14.5 20.9 0.00 0.00 0.00 100 1014.8
20260507131554 5 303 11.3 20.9 0.00 0.00 0.00 100 1014.8
20260507131054 5 289 16.1 20.9 0.00 0.00 0.00 100 1014.8
20260507130554 5 285 14.5 22.5 0.00 0.00 0.00 100 1014.8
20260507130054 5 291 16.1 24.1 0.00 0.00 0.00 100 1014.8
20260507125554 6 286 16.1 24.1 0.00 0.00 0.00 100 1014.6
20260507125054 6 271 17.7 25.7 0.00 0.00 0.00 100 1014.5
20260507124554 6 268 20.9 25.7 0.00 0.00 0.00 100 1014.4
20260507124054 6 292 16.1 30.6 0.00 0.00 0.00 100 1014.3
20260507123554 6 292 17.7 32.2 0.00 0.00 0.00 100 1014.3
20260507123054 6 288 20.9 30.6 0.00 0.00 0.00 100 1014.2